Location: Newark
(41.7772°N, 74.7403°W)
Time: 18:41:38
(UTC+00:00)

Explorer 11/Cluster Stage 4 - Visible Passes

Search period start: 06 June 2020 00:00
Search period end: 16 June 2020 00:00
Orbit: 467 x 1259 km, 28.8° (Epoch: 05 June)

Date Brightness Start Highest point End Pass type
(mag) Time Alt. Az. Time Alt. Az. Time Alt. Az.
06 Jun 8.3 08:08:26 10° S 08:10:33 13° SSE 08:12:49 10° SE visible
07 Jun 8.2 07:58:09 11° S 07:59:40 13° SSE 08:01:57 10° SE visible
08 Jun 8.1 07:48:00 13° S 07:48:48 13° SSE 07:51:03 10° SE visible
09 Jun 8.0 07:37:53 13° SSE 07:37:58 13° SSE 07:40:07 10° SE visible
10 Jun 8.1 07:27:49 13° SSE 07:27:49 13° SSE 07:29:12 10° SE visible
11 Jun 8.2 07:17:48 11° SSE 07:17:48 11° SSE 07:18:16 10° SE visible
13 Jun 7.9 08:40:52 10° SSW 08:42:18 11° S 08:43:49 10° SSE visible
